[[{"header":{"parameterUnit":"m.s-1","parameterCategory":1,"la1":30.2991,"la2":30.254,"lo1":-89.0895,"lo2":-89.0444,"dy":0.0017,"dx":0.0017,"nx":28,"ny":28,"refTime":"2023-09-05T03:00:00:Z","depth":0,"parameterNumber":2,"parameterNumberName":"U-component_of_WINDS"},"data":[0,0,0,0,0,0,0,0,0,0,0,0,0,0,0,0,0,0,0,0,0,0,0,0,0,0,0,0,0,0,0,0,0,0,0,0,0,0,0,0,0,0,0,0,0,0,0,0,0,0,0,0,0,0,0,0,0,0,-3.7048,-3.7047,0,-3.6964,-3.6963,-3.6962,-3.6789,-3.6786,-3.6782,-3.6779,-3.6698,-3.6699,-3.6701,0,0,0,0,0,0,0,0,0,0,0,0,0,-3.7065,-3.7065,-3.7048,-3.7047,-3.7046,-3.6964,-3.6963,-3.6962,-3.679,-3.6786,-3.6781,-3.6777,-3.6698,-3.6699,-3.6701,0,0,0,0,0,0,0,0,0,0,0,0,0,-3.7027,-3.7065,-3.7048,-3.695,-3.694,-3.6964,-3.6963,-3.6962,-3.6791,-3.6786,-3.678,-3.6775,-3.6698,-3.6699,-3.6701,-3.6815,0,0,-3.6706,-3.6707,0,0,0,0,0,0,0,0,-3.7029,-3.7027,-3.6965,-3.6957,-3.6946,-3.6882,-3.6939,-3.6913,-3.6792,-3.6848,-3.6779,-3.6773,-3.6764,-3.676,-3.6756,-3.6811,-3.6808,-3.6706,-3.6707,-3.6708,-3.6708,0,0,0,0,0,0,0,-3.7032,-3.7029,-3.7015,-3.6965,-3.6953,-3.6912,-3.6901,-3.6933,-3.6836,-3.6842,-3.683,-3.6822,-3.6758,-3.6755,-3.6753,-3.6807,-3.6706,-3.6707,-3.6708,-3.6709,-3.6954,-3.696,0,0,0,0,0,0,-3.7048,-3.7033,-3.7017,-3.7012,-3.6976,-3.6916,-3.6904,-3.6908,-3.6835,-3.6819,-3.6826,-3.6814,-3.6754,-3.6751,-3.6749,-3.6879,-3.6708,-3.6709,-3.671,-3.6949,-3.6956,-3.6961,0,0,0,0,0,0,-3.7049,-3.7049,-3.7021,-3.7019,-3.7012,-3.6921,-3.6927,-3.6909,-3.6905,-3.6823,-3.6806,-3.6841,-3.675,-3.6747,-3.68,-3.6874,-3.671,-3.6711,-3.6942,-3.6951,-3.6959,-3.714,0,0,0,0,0,0,-3.7051,-3.705,-3.7091,-3.7021,-3.7013,-3.7072,-3.6932,-3.6911,-3.6908,-3.6891,-3.6832,-3.6817,-3.6746,-3.6799,-3.6802,-3.6873,-3.6713,-3.6935,-3.6946,-3.6956,-3.7127,-3.7153,-3.7176,0,0,0,0,0,-3.7052,-3.7146,-3.7094,-3.7093,-3.7062,-3.7076,-3.7072,-3.6986,-3.6915,-3.6956,-3.6904,-3.6819,-3.6865,-3.6806,-3.6808,-3.688,-3.693,-3.6943,-3.6955,-3.7116,-3.7148,-3.7175,0,0,0,0,0,0,-3.7228,-3.7135,-3.7076,-3.715,-3.7123,-3.7047,-3.7096,-3.7023,-3.7016,-3.7001,-3.6897,-3.6885,-3.6953,-3.6922,-3.6857,-3.6988,-3.6884,-3.6898,-3.7006,-3.7036,-3.706,-3.7066,-3.6714,0,0,0,0,0,-3.7276,-3.7293,-3.7211,-3.7285,-3.7274,-3.7189,-3.7191,-3.7128,-3.7096,-3.7084,-3.7035,-3.7008,-3.7017,-3.7025,-3.7028,-3.7122,-3.7107,-3.7173,-3.7198,-3.7218,-3.7231,-3.728,-3.7309,-3.7002,-3.7002,-3.7002,0,0,-3.7374,-3.7325,-3.7343,-3.7319,-3.729,-3.7313,-3.7179,-3.7209,-3.7225,-3.7088,-3.7135,-3.71,-3.7063,-3.7138,-3.7168,-3.7114,-3.7313,-3.7234,-3.7251,-3.7252,-3.7296,-3.7325,-3.7351,-3.7011,-3.7009,-3.7008,0,0,-3.7564,-3.7529,-3.7586,-3.756,-3.7517,-3.746,-3.7475,-3.7411,-3.7381,-3.7426,-3.7325,-3.7344,-3.7361,-3.7339,-3.7331,-3.7516,-3.7439,-3.752,-3.7648,-3.7697,-3.7721,-3.7742,-3.7809,-3.7834,-3.7533,-3.7534,-3.7534,0,-3.7692,-3.7719,-3.7625,-3.7661,-3.7655,-3.7531,-3.759,-3.757,-3.7532,-3.7531,-3.7471,-3.749,-3.7457,-3.7525,-3.7571,-3.7568,-3.7582,-3.7526,-3.7725,-3.7745,-3.7763,-3.7826,-3.7851,-3.7544,-3.7543,-3.7542,-3.7541,0,-3.7879,-3.7901,-3.7953,-3.7918,-3.7917,-3.7965,-3.788,-3.7891,-3.7829,-3.7779,-3.7829,-3.7785,-3.7777,-3.7789,-3.7729,-3.785,-3.7818,-3.7744,-3.7637,-3.7804,-3.7862,-3.7885,-3.7559,-3.7555,-3.7552,-3.755,0,0,-3.8176,-3.809,-3.811,-3.8094,-3.8039,-3.8054,-3.8098,-3.8089,-3.8102,-3.8081,-3.8115,-3.8134,-3.8064,-3.8055,-3.7992,-3.8035,-3.8186,-3.7954,-3.7952,-3.7999,-3.8318,-3.8375,-3.8404,-3.8135,-3.8139,-3.8142,-3.8322,0,-3.8354,-3.842,-3.8338,-3.8423,-3.8443,-3.8328,-3.8365,-3.8338,-3.8293,-3.8305,-3.8256,-3.8271,-3.8178,-3.8172,-3.8209,-3.816,-3.8249,-3.8146,-3.8167,-3.8169,-3.818,-3.8434,-3.8493,-3.8665,-3.8343,-3.8347,-3.835,0,-3.8569,-3.8558,-3.8645,-3.8586,-3.8591,-3.8626,-3.8613,-3.8625,-3.8592,-3.8557,-3.8548,-3.8472,-3.8513,-3.841,-3.8466,-3.8398,-3.8402,-3.838,-3.8384,-3.8383,-3.8269,-3.844,-3.8717,-3.8743,-3.8384,-3.8381,-3.8379,0,-3.8778,-3.8784,-3.8837,-3.8826,-3.8759,-3.8787,-3.8761,-3.8722,-3.8723,-3.8713,-3.8713,-3.8708,-3.8706,-3.8705,-3.8631,-3.8563,-3.8697,-3.8587,-3.867,-3.8672,-3.8703,-3.8702,-3.8985,-3.8707,-3.8706,-3.8706,-3.8705,0,-3.8985,-3.9043,-3.893,-3.8962,-3.9025,-3.8931,-3.8997,-3.8959,-3.8926,-3.8951,-3.8852,-3.8878,-3.8779,-3.8795,-3.8738,-3.8794,-3.8793,-3.8767,-3.8751,-3.8776,-3.878,-3.8777,-3.8763,-3.8712,-3.8711,-3.871,-3.8709,0,-3.9228,-3.9154,-3.9204,-3.9137,-3.9121,-3.9171,-3.9114,-3.9143,-3.9092,-3.9125,-3.9128,-3.905,-3.9064,-3.899,-3.8992,-3.8953,-3.9038,-3.9002,-3.9049,-3.9038,-3.9125,-3.9118,-3.9416,-3.9451,-3.9151,-3.9154,-3.9157,0,-3.9364,-3.9406,-3.9343,-3.9352,-3.933,-3.9346,-3.9346,-3.9257,-3.9262,-3.9229,-3.9263,-3.9269,-3.9268,-3.9297,-3.9242,-3.9243,-3.9207,-3.9311,-3.9206,-3.923,-3.9209,-3.9207,-3.9212,-3.9333,-3.9337,-3.934,-3.9342,0,-3.9614,-3.9576,-3.9579,-3.9572,-3.9575,-3.9564,-3.9547,-3.9561,-3.9465,-3.9476,-3.9489,-3.9489,-3.949,-3.9498,-3.9489,-3.9464,-3.9389,-3.9376,-3.9395,-3.9421,-3.9446,-3.9434,-3.9109,-3.937,-3.9367,-3.9365,-3.9363,-3.9362,-3.9808,-3.984,-3.9801,-3.9809,-3.9787,-3.9774,-3.9798,-3.9751,-3.9759,-3.9752,-3.97,-3.9724,-3.9692,-3.9671,-3.9654,-3.9672,-3.9623,-3.9651,-3.9658,-3.9666,-3.9682,-3.9444,-3.9671,-3.967,-3.9669,-3.9668,-3.9667,0,-4.0053,-4.0023,-4.0031,-4.001,-4.0017,-3.9944,-3.9923,-3.9934,-3.9955,-3.9932,-3.9934,-3.995,-3.9958,-3.9904,-3.9905,-3.993,-3.9896,-3.9934,-3.9931,-3.9927,-3.9725,-3.9709,-3.9962,-3.9962,-3.9962,-3.9962,-3.9962,-3.9961,-4.0181,-4.0232,-4.019,-4.0231,-4.02,-4.0221,-4.0215,-4.0204,-4.0184,-4.0206,-4.0212,-4.0176,-4.0141,-4.0139,-4.0144,-4.0128,-4.0134,-4.0184,-4.0157,-3.9969,-3.9941,-3.9913,-3.9897,-4.0186,-4.0186,-4.0356,-4.0358,-4.0359]},{"header":{"parameterUnit":"m.s-1","parameterCategory":1,"la1":30.2991,"la2":30.254,"lo1":-89.0895,"lo2":-89.0444,"dy":0.0017,"dx":0.0017,"nx":28,"ny":28,"refTime":"2023-09-05T03:00:00:Z","depth":0,"parameterNumber":3,"parameterNumberName":"V-component_of_WINDS"},"data":[0,0,0,0,0,0,0,0,0,0,0,0,0,0,0,0,0,0,0,0,0,0,0,0,0,0,0,0,0,0,0,0,0,0,0,0,0,0,0,0,0,0,0,0,0,0,0,0,0,0,0,0,0,0,0,0,0,0,0.9903,0.9903,0,0.9863,0.9863,0.9863,0.9893,0.9894,0.9895,0.9896,0.9849,0.9847,0.9844,0,0,0,0,0,0,0,0,0,0,0,0,0,0.9999,0.9997,0.9903,0.9903,0.9902,0.9864,0.9863,0.9862,0.9892,0.9894,0.9895,0.9897,0.985,0.9847,0.9844,0,0,0,0,0,0,0,0,0,0,0,0,0,0.9958,0.9997,0.9903,0.9912,0.9913,0.9864,0.9863,0.9862,0.9892,0.9894,0.9896,0.9898,0.9851,0.9847,0.9844,0.9781,0,0,0.9832,0.9831,0,0,0,0,0,0,0,0,0.996,0.9954,0.9912,0.9912,0.9912,0.9885,0.988,0.9835,0.9891,0.99,0.9896,0.9899,0.9859,0.9855,0.9843,0.9779,0.9777,0.9832,0.983,0.9828,0.9827,0,0,0,0,0,0,0,0.9963,0.9956,0.9887,0.9911,0.9911,0.9917,0.9913,0.9871,0.9868,0.9899,0.9901,0.9897,0.986,0.9846,0.9842,0.9776,0.9832,0.9829,0.9826,0.9825,0.9658,0.9656,0,0,0,0,0,0,0.9966,0.9959,0.9888,0.9886,0.9942,0.9914,0.991,0.9892,0.9869,0.9868,0.9895,0.9898,0.9852,0.9846,0.984,0.9765,0.9828,0.9825,0.9823,0.966,0.9658,0.9655,0,0,0,0,0,0,0.9968,0.9959,0.989,0.9923,0.9915,0.991,0.9889,0.989,0.9877,0.9866,0.9865,0.9882,0.9853,0.9846,0.9796,0.9763,0.9823,0.982,0.9663,0.9659,0.9656,0.9613,0,0,0,0,0,0,0.9971,0.996,0.9937,0.9922,0.9913,0.9847,0.9888,0.9888,0.9871,0.9875,0.9854,0.9852,0.9854,0.9801,0.9792,0.9759,0.9817,0.9666,0.9661,0.9657,0.9617,0.9608,0.9601,0,0,0,0,0,0.9974,0.9925,0.9936,0.9927,0.9884,0.9846,0.984,0.9845,0.9868,0.9844,0.9838,0.9853,0.9769,0.9796,0.9786,0.9751,0.9668,0.9663,0.9658,0.9621,0.961,0.9601,0,0,0,0,0,0,0.9934,0.9923,0.9935,0.988,0.9864,0.9851,0.9821,0.9834,0.9809,0.9813,0.9819,0.9814,0.9761,0.9752,0.9782,0.9689,0.9722,0.9715,0.9697,0.9687,0.9679,0.9681,0.9814,0,0,0,0,0,0.9919,0.989,0.9882,0.9835,0.9826,0.9825,0.9808,0.9814,0.9796,0.9789,0.9778,0.9759,0.9728,0.9707,0.9679,0.9617,0.9612,0.9588,0.958,0.9574,0.9567,0.9532,0.9521,0.9639,0.9639,0.9639,0,0,0.9887,0.9878,0.9859,0.9826,0.9814,0.9782,0.9819,0.9783,0.9759,0.9783,0.9735,0.9727,0.9706,0.965,0.9624,0.964,0.9534,0.9568,0.9563,0.9559,0.9526,0.9515,0.9505,0.9636,0.9636,0.9637,0,0,0.9812,0.9804,0.9763,0.9751,0.9733,0.9733,0.9723,0.9709,0.9705,0.9658,0.9675,0.9646,0.9593,0.9577,0.9562,0.9483,0.9495,0.9474,0.9431,0.9397,0.9388,0.9379,0.935,0.9339,0.9467,0.9467,0.9467,0,0.9774,0.9729,0.9739,0.9704,0.9688,0.9711,0.9668,0.9656,0.9628,0.9616,0.9635,0.957,0.9557,0.9497,0.9478,0.9466,0.9453,0.9475,0.9389,0.9381,0.9373,0.9344,0.9333,0.9465,0.9465,0.9465,0.9465,0,0.9682,0.9651,0.9619,0.9595,0.9576,0.9537,0.954,0.952,0.9528,0.9525,0.9477,0.9463,0.9432,0.9419,0.9425,0.9359,0.9369,0.9389,0.9421,0.9359,0.9332,0.9321,0.9461,0.9462,0.9462,0.9463,0,0,0.9578,0.9562,0.955,0.9539,0.9522,0.9497,0.9459,0.9431,0.9412,0.9393,0.936,0.9316,0.9334,0.9317,0.9322,0.9293,0.923,0.9316,0.9315,0.9298,0.9155,0.9138,0.9126,0.924,0.9238,0.9236,0.9156,0,0.9501,0.9436,0.9445,0.9382,0.9352,0.9375,0.9341,0.9326,0.9323,0.9296,0.9293,0.9261,0.9288,0.9278,0.925,0.9244,0.9201,0.925,0.9206,0.9204,0.9208,0.9112,0.9095,0.9019,0.9146,0.9144,0.9143,0,0.9402,0.9382,0.9316,0.9304,0.9292,0.9262,0.9237,0.9212,0.9195,0.9195,0.9177,0.9188,0.9148,0.9183,0.9127,0.916,0.9143,0.9138,0.9135,0.9128,0.9167,0.9101,0.8996,0.8983,0.9126,0.9128,0.9129,0,0.933,0.9286,0.9241,0.9232,0.9218,0.9196,0.9188,0.9174,0.9157,0.9134,0.9123,0.9096,0.908,0.9058,0.906,0.9086,0.9002,0.9039,0.8999,0.8999,0.8978,0.8978,0.8866,0.8971,0.8971,0.8972,0.8972,0,0.9241,0.9199,0.9209,0.9181,0.9135,0.9146,0.9099,0.9094,0.9082,0.9052,0.907,0.9041,0.9048,0.9019,0.9021,0.8973,0.8966,0.8963,0.8963,0.896,0.896,0.8946,0.8951,0.8969,0.8969,0.897,0.897,0,0.9151,0.9157,0.9109,0.91,0.9097,0.9063,0.9055,0.9028,0.9028,0.899,0.8981,0.898,0.8947,0.8949,0.891,0.8912,0.8852,0.886,0.8858,0.8859,0.8818,0.8821,0.8691,0.8674,0.8793,0.8792,0.8791,0,0.9093,0.9062,0.9051,0.9034,0.9025,0.8997,0.898,0.899,0.8971,0.8951,0.8925,0.8895,0.887,0.8816,0.881,0.8781,0.8787,0.8743,0.8782,0.8779,0.8783,0.8784,0.878,0.8734,0.8733,0.8732,0.8731,0,0.8989,0.8993,0.8969,0.8946,0.8926,0.8908,0.8891,0.8875,0.8883,0.8861,0.8829,0.881,0.8773,0.8741,0.8713,0.8704,0.8717,0.872,0.8708,0.8703,0.8702,0.87,0.8835,0.8722,0.8722,0.8723,0.8724,0.8724,0.8911,0.8884,0.8873,0.8845,0.8835,0.8819,0.8793,0.8791,0.8765,0.8736,0.8744,0.8707,0.8691,0.8656,0.8645,0.8615,0.863,0.8614,0.861,0.8605,0.8599,0.871,0.861,0.861,0.861,0.8611,0.8611,0,0.8806,0.88,0.8775,0.8752,0.8731,0.875,0.8732,0.8712,0.868,0.8666,0.8642,0.8604,0.8574,0.8568,0.8538,0.8516,0.8521,0.8507,0.8507,0.8505,0.8588,0.86,0.8503,0.8503,0.8503,0.8503,0.8503,0.8503,0.8748,0.8704,0.8707,0.8657,0.8651,0.8617,0.8605,0.859,0.8579,0.8537,0.8513,0.851,0.8498,0.8468,0.8441,0.844,0.8427,0.841,0.8411,0.8488,0.8499,0.8509,0.852,0.8408,0.8408,0.8329,0.8328,0.8328]}]]